La Grande, OR

1:01 AM PDT on March 28, 2017 (GMT -0700)
La Grande-Union County

Weather History for KLGD - January, 2014

Change the Weather History Date:

Wednesday, January 8, 2014

  Actual Average Record
Temperature  
Mean Temperature 34 °F -  
Max Temperature 37 °F 36 °F 52 °F (1966)
Min Temperature 32 °F 26 °F -6 °F (1974)
Degree Days  
Heating Degree Days 30    
Moisture  
Dew Point 23 °F    
Average Humidity 63    
Maximum Humidity 70    
Minimum Humidity 56    
Precipitation  
Precipitation 0.14 in - - ()
Sea Level Pressure  
Sea Level Pressure 29.97 in    
Wind  
Wind Speed 10 mph (South)    
Max Wind Speed 26 mph    
Max Gust Speed 36 mph    
Visibility 9 miles    
Events      
Averages and records for this station are not official NWS values.
T = Trace of Precipitation, MM = Missing Value Source: NWS Daily Summary

Daily Weather History Graph

Daily Weather History Graph

Search for Another Location

Airport or City:

Trip Planner

Search our weather history database for the weather conditions in past years. The results will help you decide how hot, cold, wet, or windy it might be!

Date:

Astronomy

Jan. 08, 2014 Rise Set
Actual Time 7:30 AM PST 4:27 PM PST
Civil Twilight 6:57 AM PST 5:00 PM PST
Nautical Twilight 6:20 AM PST 5:37 PM PST
Astronomical Twilight 5:44 AM PST 6:13 PM PST
Moon 11:31 AM PST (1/8) 12:31 AM PST (1/8)
Length of Visible Light 10h 03m
Length of Day
8h 56m
First Quarter, 57% of the Moon is Illuminated
Jan 8
First Quarter
Jan 15
Full
Jan 23
Last Quarter
Jan 30
New
Feb 6
First Quarter

Hourly Weather History & Observations

Time (PST) Temp. Windchill Dew Point Humidity Pressure Visibility Wind Dir Wind Speed Gust Speed Precip Events Conditions
12:15 AM 33.8 °F 25.3 °F 21.2 °F 60% 30.05 in 10.0 mi SSW 11.5 mph - N/A   Overcast
12:35 AM 33.8 °F 25.8 °F 21.2 °F 60% 30.04 in 10.0 mi SSW 10.4 mph - N/A   Overcast
12:55 AM 33.8 °F 25.8 °F 21.2 °F 60% 30.05 in 7.0 mi SSW 10.4 mph - N/A   Overcast
1:15 AM 33.8 °F 27.7 °F 21.2 °F 60% 30.05 in 5.0 mi South 6.9 mph - N/A   Overcast
1:35 AM 33.8 °F 27.7 °F 21.2 °F 60% 30.06 in 4.0 mi South 6.9 mph - N/A   Overcast
1:55 AM 33.8 °F - 21.2 °F 60% 30.07 in 3.0 mi Calm Calm - N/A   Overcast
2:15 AM 32.0 °F - 21.2 °F 64% 30.07 in 3.0 mi Calm Calm - N/A   Overcast
2:35 AM 32.0 °F - 21.2 °F 64% 30.07 in 4.0 mi Calm Calm - N/A   Overcast
2:55 AM 32.0 °F 28.7 °F 23.0 °F 69% 30.07 in 9.0 mi South 3.5 mph - N/A   Overcast
3:15 AM 33.8 °F 26.4 °F 21.2 °F 60% 30.07 in 10.0 mi SSW 9.2 mph - 0.01 in   Overcast
3:35 AM 33.8 °F 27.0 °F 21.2 °F 60% 30.07 in 10.0 mi SSW 8.1 mph - 0.01 in   Overcast
3:55 AM 32.0 °F 26.4 °F 21.2 °F 64% 30.06 in 10.0 mi SSW 5.8 mph - 0.01 in   Overcast
4:15 AM 33.8 °F 28.6 °F 21.2 °F 60% 30.06 in 5.0 mi SSW 5.8 mph - N/A   Overcast
4:35 AM 32.0 °F - 23.0 °F 69% 30.07 in 7.0 mi Calm Calm - 0.01 in   Overcast
4:55 AM 33.8 °F 27.7 °F 23.0 °F 65% 30.06 in 5.0 mi SSW 6.9 mph - 0.01 in   Overcast
5:15 AM 32.0 °F 27.5 °F 21.2 °F 64% 30.06 in 8.0 mi ENE 4.6 mph - N/A   Overcast
5:35 AM 32.0 °F 27.5 °F 21.2 °F 64% 30.06 in 8.0 mi NE 4.6 mph - N/A   Overcast
5:55 AM 32.0 °F - 23.0 °F 69% 30.06 in 5.0 mi Calm Calm - N/A   Overcast
6:15 AM 32.0 °F 27.5 °F 23.0 °F 69% 30.05 in 4.0 mi NW 4.6 mph - N/A   Overcast
6:35 AM 32.0 °F 27.5 °F 23.0 °F 69% 30.05 in 6.0 mi North 4.6 mph - 0.01 in   Overcast
6:55 AM 33.8 °F - 23.0 °F 65% 30.05 in 10.0 mi Calm Calm - 0.01 in   Overcast
7:15 AM 33.8 °F 28.6 °F 21.2 °F 60% 30.06 in 10.0 mi SSW 5.8 mph - N/A   Overcast
7:35 AM 32.0 °F 28.7 °F 21.2 °F 64% 30.06 in 9.0 mi SE 3.5 mph - N/A   Overcast
7:55 AM 32.0 °F - 21.2 °F 64% 30.06 in 5.0 mi Calm Calm - N/A   Overcast
8:15 AM 32.0 °F - 23.0 °F 69% 30.06 in 7.0 mi Calm Calm - N/A   Overcast
8:35 AM 33.8 °F 30.8 °F 24.8 °F 70% 30.06 in 9.0 mi West 3.5 mph - N/A   Overcast
8:55 AM 35.6 °F 32.8 °F 24.8 °F 65% 30.06 in 10.0 mi East 3.5 mph - 0.01 in   Overcast
9:15 AM 33.8 °F 29.6 °F 24.8 °F 70% 30.06 in 10.0 mi SE 4.6 mph - N/A   Overcast
9:35 AM 35.6 °F 27.5 °F 23.0 °F 60% 30.06 in 10.0 mi SSE 11.5 mph 20.7 mph N/A   Overcast
9:55 AM 35.6 °F 26.6 °F 24.8 °F 65% 30.06 in 10.0 mi South 13.8 mph 19.6 mph 0.01 in   Overcast
10:35 AM 35.6 °F 26.2 °F 21.2 °F 56% 30.06 in 10.0 mi South 15.0 mph 24.2 mph N/A   Overcast
10:55 AM 35.6 °F 24.5 °F 23.0 °F 60% 30.04 in 10.0 mi South 20.7 mph 25.3 mph N/A   Overcast
11:15 AM 35.6 °F 24.8 °F 23.0 °F 60% 30.03 in 10.0 mi South 19.6 mph 25.3 mph N/A   Overcast
11:35 AM 35.6 °F 24.8 °F 23.0 °F 60% 30.02 in 10.0 mi South 19.6 mph 27.6 mph N/A   Overcast
11:55 AM 35.6 °F 25.5 °F 23.0 °F 60% 30.01 in 10.0 mi South 17.3 mph 24.2 mph N/A   Overcast
12:15 PM 35.6 °F 25.2 °F 23.0 °F 60% 29.99 in 10.0 mi South 18.4 mph 25.3 mph N/A   Overcast
12:35 PM 35.6 °F 25.5 °F 23.0 °F 60% 29.99 in 10.0 mi South 17.3 mph 24.2 mph N/A   Overcast
12:55 PM 35.6 °F 25.2 °F 21.2 °F 56% 29.98 in 10.0 mi South 18.4 mph 28.8 mph N/A   Overcast
1:15 PM 35.6 °F 25.2 °F 21.2 °F 56% 29.97 in 10.0 mi South 18.4 mph 26.5 mph N/A   Overcast
1:35 PM 35.6 °F 24.5 °F 21.2 °F 56% 29.96 in 10.0 mi South 20.7 mph 25.3 mph N/A   Overcast
1:55 PM 35.6 °F 25.2 °F 21.2 °F 56% 29.96 in 10.0 mi South 18.4 mph 25.3 mph N/A   Overcast
2:15 PM 35.6 °F 24.8 °F 23.0 °F 60% 29.96 in 10.0 mi SSW 19.6 mph 27.6 mph N/A   Overcast
2:35 PM 35.6 °F 24.8 °F 23.0 °F 60% 29.96 in 10.0 mi South 19.6 mph 24.2 mph N/A   Overcast
2:55 PM 35.6 °F 26.6 °F 23.0 °F 60% 29.95 in 10.0 mi SSE 13.8 mph 20.7 mph N/A   Overcast
3:15 PM 35.6 °F 26.6 °F 23.0 °F 60% 29.96 in 10.0 mi South 13.8 mph 23.0 mph N/A   Overcast
3:35 PM 35.6 °F 25.2 °F 24.8 °F 65% 29.95 in 10.0 mi South 18.4 mph 24.2 mph N/A   Mostly Cloudy
3:55 PM 35.6 °F 24.0 °F 23.0 °F 60% 29.93 in 10.0 mi South 23.0 mph 29.9 mph N/A   Mostly Cloudy
4:15 PM 35.6 °F 24.0 °F 24.8 °F 65% 29.92 in 10.0 mi South 23.0 mph 31.1 mph N/A   Mostly Cloudy
4:35 PM 35.6 °F 25.2 °F 24.8 °F 65% 29.92 in 10.0 mi South 18.4 mph 33.4 mph N/A   Mostly Cloudy
4:55 PM 35.6 °F 24.8 °F 24.8 °F 65% 29.92 in 10.0 mi South 19.6 mph 25.3 mph N/A   Mostly Cloudy
5:15 PM 35.6 °F 24.0 °F 24.8 °F 65% 29.91 in 10.0 mi South 23.0 mph 28.8 mph N/A   Overcast
5:35 PM 35.6 °F 25.9 °F 24.8 °F 65% 29.90 in 10.0 mi SSE 16.1 mph 25.3 mph N/A   Overcast
5:55 PM 35.6 °F 24.0 °F 23.0 °F 60% 29.90 in 10.0 mi South 23.0 mph 31.1 mph N/A   Overcast
6:15 PM 35.6 °F 23.2 °F 24.8 °F 65% 29.89 in 10.0 mi South 26.5 mph 33.4 mph N/A   Overcast
6:35 PM 35.6 °F 25.5 °F 24.8 °F 65% 29.88 in 10.0 mi South 17.3 mph 25.3 mph N/A   Mostly Cloudy
6:55 PM 35.6 °F 24.0 °F 24.8 °F 65% 29.88 in 10.0 mi South 23.0 mph 35.7 mph N/A   Overcast
7:15 PM 35.6 °F 24.8 °F 24.8 °F 65% 29.87 in 10.0 mi South 19.6 mph 28.8 mph N/A   Overcast
7:35 PM 35.6 °F 26.6 °F 24.8 °F 65% 29.85 in 10.0 mi South 13.8 mph 27.6 mph N/A   Overcast
7:55 PM 35.6 °F 26.6 °F 24.8 °F 65% 29.85 in 10.0 mi SE 13.8 mph 20.7 mph N/A   Overcast
8:15 PM 35.6 °F 27.1 °F 24.8 °F 65% 29.84 in 10.0 mi SSE 12.7 mph 23.0 mph N/A   Overcast
8:35 PM 35.6 °F 26.2 °F 24.8 °F 65% 29.82 in 10.0 mi SE 15.0 mph 23.0 mph N/A   Overcast
8:55 PM 35.6 °F 25.9 °F 24.8 °F 65% 29.81 in 10.0 mi South 16.1 mph 26.5 mph N/A   Overcast
9:15 PM 35.6 °F 25.2 °F 24.8 °F 65% 29.81 in 10.0 mi South 18.4 mph 24.2 mph N/A   Overcast
9:35 PM 37.4 °F 28.9 °F 26.6 °F 65% 29.84 in 10.0 mi WSW 13.8 mph 27.6 mph N/A   Overcast
9:55 PM 37.4 °F 30.3 °F 26.6 °F 65% 29.85 in 8.0 mi SSW 10.4 mph 21.9 mph 0.01 in   Overcast
10:15 PM 35.6 °F 26.6 °F 24.8 °F 65% 29.84 in 3.0 mi South 13.8 mph - 0.05 in   Overcast
10:35 PM 35.6 °F 29.2 °F 26.6 °F 70% 29.84 in 10.0 mi East 8.1 mph - 0.07 in   Overcast
10:55 PM 35.6 °F 29.9 °F 26.6 °F 70% 29.82 in 10.0 mi ESE 6.9 mph - 0.07 in   Mostly Cloudy
11:15 PM 35.6 °F 29.9 °F 26.6 °F 70% 29.82 in 10.0 mi SSE 6.9 mph - N/A   Overcast
11:35 PM 35.6 °F 32.8 °F 26.6 °F 70% 29.80 in 10.0 mi South 3.5 mph - N/A   Mostly Cloudy
11:55 PM 35.6 °F 28.0 °F 26.6 °F 70% 29.81 in 9.0 mi SSW 10.4 mph - 0.01 in   Overcast